Weather History for Ahoskie, NC

Change the Weather History Date:

Thursday, January 23, 2014

  Actual Average (KEMV) Record (KEMV)
Temperature  
Mean Temperature 21 °F -  
Max Temperature 35 °F 47 °F 70 °F (1986)
Min Temperature 8 °F 24 °F 8 °F (2014)
Degree Days  
Heating Degree Days 44    
Moisture  
Dew Point 9 °F    
Average Humidity 59    
Maximum Humidity 92    
Minimum Humidity 34    
Precipitation  
Precipitation 0.00 in - - ()
Sea Level Pressure  
Sea Level Pressure 30.27 in    
Wind  
Wind Speed 1 mph (NW)    
Max Wind Speed 9 mph    
Max Gust Speed 21 mph    
Visibility 10 miles    
Events      
Averages and records for this station are not official NWS values.
T = Trace of Precipitation, MM = Missing Value Source: NWS Daily Summary

Daily Weather History Graph

Daily Weather History Graph

Search for Another Location

Airport:

Trip Planner

Search our weather history database for the weather conditions in past years. The results will help you decide how hot, cold, wet, or windy it might be!

Date:

Astronomy

Jan. 23, 2014 Rise Set
Actual Time 7:15 AM EST 5:25 PM EST
Civil Twilight 6:48 AM EST 5:53 PM EST
Nautical Twilight 6:17 AM EST 6:24 PM EST
Astronomical Twilight 5:46 AM EST 6:55 PM EST
Moon No Moon Rise 11:03 AM EST (1/23)
Length of Visible Light 11h 04m
Length of Day
10h 09m
Waning Gibbous, 55% of the Moon is Illuminated
Jan 23
Waning Gibbous
Jan 24
Last Quarter
Jan 30
New
Feb 6
First Quarter
Feb 14
Full

Hourly Weather History & Observations

Time (EST) Temp. Windchill Dew Point Humidity Pressure Visibility Wind Dir Wind Speed Gust Speed Precip Events Conditions
12:15 AM 12.4 °F - 9.3 °F 88% 30.14 in 10.0 mi Calm Calm - N/A   Overcast
12:35 AM 12.7 °F - 10.0 °F 89% 30.14 in 10.0 mi Calm Calm - N/A   Mostly Cloudy
12:55 AM 12.9 °F - 9.5 °F 86% 30.14 in 10.0 mi Calm Calm - N/A   Overcast
1:15 AM 13.5 °F - 10.0 °F 86% 30.13 in 10.0 mi Calm Calm - N/A   Overcast
1:35 AM 13.1 °F - 9.3 °F 85% 30.13 in 10.0 mi Calm Calm - N/A   Mostly Cloudy
1:55 AM 13.5 °F - 10.2 °F 87% 30.14 in 10.0 mi Calm Calm - N/A   Mostly Cloudy
2:15 AM 13.5 °F - 10.4 °F 88% 30.15 in 10.0 mi Calm Calm - N/A   Overcast
2:35 AM 13.8 °F - 10.4 °F 86% 30.16 in 10.0 mi Calm Calm - N/A   Overcast
2:55 AM 13.1 °F - 9.7 °F 86% 30.16 in 10.0 mi Calm Calm - N/A   Scattered Clouds
3:15 AM 12.2 °F - 8.8 °F 86% 30.17 in 10.0 mi Calm Calm - N/A   Clear
3:35 AM 11.5 °F - 9.0 °F 90% 30.17 in 10.0 mi Calm Calm - N/A   Clear
3:55 AM 11.3 °F - 8.6 °F 89% 30.18 in 10.0 mi Calm Calm - N/A   Clear
4:15 AM 10.6 °F - 7.7 °F 88% 30.19 in 10.0 mi Calm Calm - N/A   Clear
4:35 AM 10.0 °F - 8.1 °F 92% 30.19 in 10.0 mi Calm Calm - N/A   Clear
4:55 AM 10.4 °F - 8.4 °F 92% 30.19 in 10.0 mi Calm Calm - N/A   Clear
5:15 AM 9.9 °F - 7.7 °F 91% 30.20 in 10.0 mi Calm Calm - N/A   Clear
5:35 AM 9.9 °F - 7.7 °F 91% 30.21 in 10.0 mi Calm Calm - N/A   Clear
5:55 AM 9.5 °F - 7.7 °F 92% 30.22 in 10.0 mi Calm Calm - N/A   Clear
6:15 AM 9.5 °F - 7.5 °F 92% 30.22 in 10.0 mi Calm Calm - N/A   Clear
6:35 AM 9.5 °F - 7.5 °F 92% 30.22 in 10.0 mi Calm Calm - N/A   Clear
6:55 AM 9.7 °F - 7.0 °F 89% 30.22 in 10.0 mi Calm Calm - N/A   Clear
7:15 AM 8.8 °F - 6.4 °F 90% 30.23 in 10.0 mi Calm Calm - N/A   Clear
7:35 AM 10.0 °F - 7.9 °F 91% 30.24 in 10.0 mi Calm Calm - N/A   Clear
7:55 AM 10.8 °F - 8.4 °F 90% 30.24 in 10.0 mi Calm Calm - N/A   Clear
8:15 AM 12.2 °F - 9.3 °F 88% 30.25 in 10.0 mi Calm Calm - N/A   Clear
8:35 AM 15.3 °F - 11.8 °F 86% 30.26 in 10.0 mi Calm Calm - N/A   Clear
8:55 AM 18.3 °F - 13.8 °F 83% 30.28 in 10.0 mi Calm Calm - N/A   Clear
9:15 AM 22.5 °F - 13.3 °F 68% 30.28 in 10.0 mi Calm Calm - N/A   Clear
9:35 AM 25.5 °F - 9.9 °F 52% 30.28 in 10.0 mi Calm Calm - N/A   Clear
9:55 AM 26.6 °F - 8.6 °F 47% 30.30 in 10.0 mi Calm Calm - N/A   Clear
10:15 AM 27.9 °F 24.0 °F 8.1 °F 43% 30.30 in 10.0 mi West 3.5 mph - N/A   Clear
10:55 AM 29.8 °F - 8.8 °F 41% 30.30 in 10.0 mi Calm Calm - N/A   Clear
11:15 AM 30.9 °F - 10.8 °F 43% 30.29 in 10.0 mi Calm Calm - N/A   Clear
11:35 AM 31.5 °F 28.1 °F 10.9 °F 43% 30.28 in 10.0 mi South 3.5 mph - N/A   Clear
11:55 AM 32.0 °F - 11.7 °F 43% 30.27 in 10.0 mi Calm Calm - N/A   Clear
12:15 PM 32.2 °F - 9.1 °F 38% 30.25 in 10.0 mi Calm Calm - N/A   Clear
12:35 PM 32.2 °F 28.9 °F 10.8 °F 41% 30.25 in 10.0 mi SSW 3.5 mph - N/A   Clear
12:55 PM 32.9 °F - 11.5 °F 41% 30.24 in 10.0 mi Calm Calm - N/A   Clear
1:15 PM 32.4 °F 29.1 °F 10.2 °F 40% 30.24 in 10.0 mi West 3.5 mph - N/A   Clear
1:35 PM 33.4 °F - 13.6 °F 44% 30.23 in 10.0 mi Calm Calm - N/A   Clear
1:55 PM 34.5 °F 30.4 °F 13.3 °F 42% 30.23 in 10.0 mi West 4.6 mph - N/A   Clear
2:15 PM 34.3 °F - 14.7 °F 45% 30.22 in 10.0 mi Calm Calm - N/A   Clear
2:35 PM 33.8 °F - 11.1 °F 39% 30.22 in 10.0 mi Calm Calm - N/A   Clear
2:55 PM 34.7 °F - 12.0 °F 39% 30.23 in 10.0 mi Calm Calm - N/A   Clear
3:15 PM 34.7 °F - 11.8 °F 39% 30.24 in 10.0 mi Calm Calm - N/A   Clear
3:35 PM 34.9 °F 29.9 °F 9.9 °F 35% 30.25 in 10.0 mi NW 5.8 mph - N/A   Clear
3:55 PM 33.8 °F - 8.8 °F 35% 30.26 in 10.0 mi Calm Calm - N/A   Clear
4:15 PM 33.6 °F - 9.3 °F 36% 30.26 in 10.0 mi Calm Calm - N/A   Clear
4:35 PM 33.1 °F - 9.1 °F 37% 30.27 in 10.0 mi Calm Calm - N/A   Clear
4:55 PM 32.5 °F - 9.0 °F 37% 30.28 in 10.0 mi Calm Calm - N/A   Clear
5:15 PM 32.0 °F - 9.5 °F 39% 30.29 in 10.0 mi Calm Calm - N/A   Clear
5:35 PM 31.1 °F - 9.3 °F 40% 30.29 in 10.0 mi Calm Calm - N/A   Clear
5:55 PM 30.6 °F - 10.9 °F 44% 30.30 in 10.0 mi Calm Calm - N/A   Clear
6:15 PM 30.7 °F - 10.6 °F 43% 30.31 in 10.0 mi Calm Calm - N/A   Clear
6:35 PM 30.7 °F - 12.0 °F 46% 30.32 in 10.0 mi Calm Calm - N/A   Clear
6:55 PM 30.7 °F - 12.0 °F 46% 30.32 in 10.0 mi Calm Calm - N/A   Clear
7:15 PM 30.0 °F - 12.0 °F 47% 30.33 in 10.0 mi Calm Calm - N/A   Clear
7:35 PM 29.1 °F - 12.0 °F 49% 30.34 in 10.0 mi Calm Calm - N/A   Clear
7:55 PM 29.8 °F 21.5 °F 10.9 °F 45% 30.35 in 10.0 mi NNW 9.2 mph 16.1 mph N/A   Clear
8:15 PM 29.3 °F 23.2 °F 8.8 °F 42% 30.36 in 10.0 mi NNW 5.8 mph - N/A   Clear
8:35 PM 28.6 °F 19.9 °F 9.1 °F 44% 30.37 in 10.0 mi NNW 9.2 mph - N/A   Clear
8:55 PM 27.9 °F 22.6 °F 4.3 °F 37% 30.38 in 10.0 mi NNW 4.6 mph - N/A   Clear
9:15 PM 27.3 °F 20.9 °F 3.2 °F 36% 30.39 in 10.0 mi NNW 5.8 mph - N/A   Clear
9:35 PM 26.8 °F 21.4 °F 3.4 °F 37% 30.40 in 10.0 mi NNW 4.6 mph - N/A   Clear
9:55 PM 25.9 °F 19.2 °F 1.8 °F 35% 30.41 in 10.0 mi NNW 5.8 mph - N/A   Clear
10:15 PM 25.2 °F 16.5 °F 0.3 °F 34% 30.41 in 10.0 mi North 8.1 mph 17.3 mph N/A   Clear
10:35 PM 24.6 °F 18.8 °F 0.5 °F 35% 30.41 in 10.0 mi North 4.6 mph - N/A   Clear
10:55 PM 24.1 °F 18.2 °F 1.2 °F 37% 30.42 in 10.0 mi NNW 4.6 mph - N/A   Clear
11:15 PM 23.7 °F 14.0 °F -0.4 °F 35% 30.43 in 10.0 mi NNW 9.2 mph 20.7 mph N/A   Clear
11:35 PM 23.0 °F 13.9 °F -1.3 °F 35% 30.43 in 10.0 mi NNW 8.1 mph - N/A   Clear
11:55 PM 22.8 °F 15.5 °F -0.4 °F 36% 30.44 in 10.0 mi NNW 5.8 mph - N/A   Clear